FENGYUN 1C DEB

Satellite information

Favourite Embed

Satellite Type and Status

DEBRISIN ORBIT

Key statistics

Satellite FENGYUN 1C DEB at a glance.

Uptime

9555

Days in orbit

Revolutions

≈ 14.2

Per day

Orbit

SSO

Sun Synchronous Orbit

Inclination

98.6

Latest

Satellite identification and parameters

Extended collection of information and parameters for FENGYUN 1C DEB.

Object identification

Identified? True

Debris? True

Object name: FENGYUN 1C DEB

International designator: 1999-025BRS

Object number (NORAD): 31362

Object ID (CCSDS): 31362

Country: PEOPLES REPUBLIC OF CHINA (PRC)

Current information (Y/N): Y

RCS size: SMALL

Orbital parameters

Period: 101.606 minutes

Inclination: 98.6425 deg

SMA: 7212.828 km

Apoapsis: 847.65 km

Periapsis: 821.736 km

RAAN: 186.4085 deg

Eccentricy: 0.0017964

Argument of periapsis: 188.8312 deg

Mean anomaly: 171.255 deg

Mean motion: 14.17243223 rev/day

Mean motion (dot): 0.00000179 rev/day2

B* drag term: 0.00010958 1/REarth

Two-line elements (TLE)

Creation date: July 6, 2025, 10:36 p.m.

Reference frame: TEME

Reference center: EARTH

Epoch: July 6, 2025, 6:58 p.m. UTC

TLE line 0: 0 FENGYUN 1C DEB

TLE line 1: 1 31362U 99025BRS 25187.79088978 .00000179 00000-0 10958-3 0 9992

TLE line 2: 2 31362 98.6425 186.4085 0017964 188.8312 171.2550 14.17243223943434

Live tracking on map

Real-time ground track for satellite FENGYUN 1C DEB.

In-orbit conjunctions

A list of the most updated potential collisions computed for object FENGYUN 1C DEB.

Target Orbit TCA Probability of collision Miss distance Type
SL-16 R/B LEO 2025-01-06 19:27:38 0.004406191 49.0 (m) ROCKET BODY
METEOR 2-6 DEB LEO 2024-07-27 17:04:22 0.0001226702 80.0 (m) DEBRIS

Associated space launch

Chinese polar orbiting meteorological satellite

FENGYUN 1C DEB was lifted into orbit during the mission ‘Long March 4B | Feng Yun 1C’, on board a Long March 4B space rocket.

The launch took place on May 10, 1999, 1:33 a.m. from Launch Complex 7.

For more information about the launch, click the button.

Launch to space Long March 4B | Feng Yun 1C
Long March 4B | Feng Yun 1C

Agency: N/A

Status: Launch Successful

Launch date: May 10, 1999, 1:33 a.m. UTC

Rocket: Long March 4B

Launch pad: Launch Complex 7

Location: Taiyuan Satellite Launch Center, People's Republic of China

...

Latest news about this satellite

There are no fresh news available about this satellite. Check back as we update our databases every day.


Newsletter sign-up

Weekly statistics, charts and insights to help you stay on top of the space industry.